Time,TemperatureF,DewpointF,PressureIn,WindDirection,WindDirectionDegrees,WindSpeedMPH,WindSpeedGustMPH,Humidity,HourlyPrecipIn,Conditions,Clouds,dailyrainin,SoftwareType,DateUTC
2013-06-17 00:02:00,77.0,-99.9,30.08,East,90,5.0,10.0,-999,-99.99,,,-99.99,,2013-06-17 04:02:00,
2013-06-17 00:12:00,77.0,-99.9,30.06,East,81,3.0,7.0,-999,-99.99,,,-99.99,,2013-06-17 04:12:00,
2013-06-17 00:23:00,77.0,-99.9,30.07,ENE,70,3.0,4.0,-999,-99.99,,,-99.99,,2013-06-17 04:23:00,
2013-06-17 00:34:00,77.0,-99.9,30.06,ESE,107,3.0,6.0,-999,-99.99,,,-99.99,,2013-06-17 04:34:00,
2013-06-17 00:43:00,77.0,-99.9,30.06,SSE,150,4.0,5.0,-999,-99.99,,,-99.99,,2013-06-17 04:43:00,
2013-06-17 00:53:00,76.0,-99.9,30.06,East,101,4.0,5.0,-999,-99.99,,,-99.99,,2013-06-17 04:53:00,
2013-06-17 01:02:00,76.0,-99.9,30.07,SE,141,3.0,6.0,-999,-99.99,,,-99.99,,2013-06-17 05:02:00,
2013-06-17 01:12:00,77.0,-99.9,30.07,SSE,155,3.0,4.0,-999,-99.99,,,-99.99,,2013-06-17 05:12:00,
2013-06-17 01:22:00,77.0,-99.9,30.07,SSW,211,1.0,3.0,-999,-99.99,,,-99.99,,2013-06-17 05:22:00,
2013-06-17 01:33:00,77.0,-99.9,30.07,South,185,2.0,4.0,-999,-99.99,,,-99.99,,2013-06-17 05:33:00,
2013-06-17 01:44:00,77.0,-99.9,30.07,South,177,4.0,7.0,-999,-99.99,,,-99.99,,2013-06-17 05:44:00,
2013-06-17 01:53:00,77.0,-99.9,30.07,WSW,258,1.0,4.0,-999,-99.99,,,-99.99,,2013-06-17 05:53:00,
2013-06-17 02:02:00,77.0,-99.9,30.07,SE,131,0.0,3.0,-999,-99.99,,,-99.99,,2013-06-17 06:02:00,
2013-06-17 02:12:00,77.0,-99.9,30.06,SW,236,2.0,3.0,-999,-99.99,,,-99.99,,2013-06-17 06:12:00,
2013-06-17 02:22:00,77.0,-99.9,30.06,West,263,-999.0,0.0,-999,-99.99,,,-99.99,,2013-06-17 06:22:00,
2013-06-17 02:33:00,77.0,-99.9,30.05,SW,214,-999.0,1.0,-999,-99.99,,,-99.99,,2013-06-17 06:33:00,
2013-06-17 02:44:00,77.0,-99.9,30.05,SE,127,2.0,3.0,-999,-99.99,,,-99.99,,2013-06-17 06:44:00,
2013-06-17 02:53:00,78.0,-99.9,30.05,North,-999,-999.0,-999.0,-999,-99.99,,,-99.99,,2013-06-17 06:53:00,
2013-06-17 03:02:00,78.0,-99.9,30.04,North,-999,-999.0,-999.0,-999,-99.99,,,-99.99,,2013-06-17 07:02:00,
2013-06-17 03:12:00,77.0,-99.9,30.04,SE,129,2.0,6.0,-999,-99.99,,,-99.99,,2013-06-17 07:12:00,
2013-06-17 03:22:00,77.0,-99.9,30.04,ESE,110,3.0,6.0,-999,-99.99,,,-99.99,,2013-06-17 07:22:00,
2013-06-17 03:33:00,77.0,-99.9,30.04,ENE,69,3.0,6.0,-999,-99.99,,,-99.99,,2013-06-17 07:33:00,
2013-06-17 03:43:00,77.0,-99.9,30.03,SE,134,-999.0,2.0,-999,-99.99,,,-99.99,,2013-06-17 07:43:00,
2013-06-17 03:53:00,77.0,-99.9,30.03,ESE,117,4.0,5.0,-999,-99.99,,,-99.99,,2013-06-17 07:53:00,
2013-06-17 04:02:00,77.0,-99.9,30.03,ESE,113,2.0,4.0,-999,-99.99,,,-99.99,,2013-06-17 08:02:00,
2013-06-17 04:12:00,77.0,-99.9,30.02,ESE,122,2.0,3.0,-999,-99.99,,,-99.99,,2013-06-17 08:12:00,
2013-06-17 04:22:00,77.0,-99.9,30.02,SE,141,2.0,2.0,-999,-99.99,,,-99.99,,2013-06-17 08:22:00,
2013-06-17 04:34:00,77.0,-99.9,30.02,SE,140,3.0,3.0,-999,-99.99,,,-99.99,,2013-06-17 08:34:00,
2013-06-17 04:43:00,77.0,-99.9,30.02,SSE,151,1.0,2.0,-999,-99.99,,,-99.99,,2013-06-17 08:43:00,
2013-06-17 04:53:00,77.0,-99.9,30.02,SE,143,2.0,2.0,-999,-99.99,,,-99.99,,2013-06-17 08:53:00,
2013-06-17 05:02:00,77.0,-99.9,30.02,SE,124,3.0,4.0,-999,-99.99,,,-99.99,,2013-06-17 09:02:00,
2013-06-17 05:12:00,77.0,-99.9,30.02,ESE,115,2.0,3.0,-999,-99.99,,,-99.99,,2013-06-17 09:12:00,
2013-06-17 05:22:00,77.0,-99.9,30.01,SE,134,3.0,4.0,-999,-99.99,,,-99.99,,2013-06-17 09:22:00,
2013-06-17 05:34:00,76.0,-99.9,30.02,SE,130,3.0,4.0,-999,-99.99,,,-99.99,,2013-06-17 09:34:00,
2013-06-17 05:44:00,76.0,-99.9,30.03,SE,126,3.0,5.0,-999,-99.99,,,-99.99,,2013-06-17 09:44:00,
2013-06-17 05:53:00,76.0,-99.9,30.03,ESE,112,2.0,3.0,-999,-99.99,,,-99.99,,2013-06-17 09:53:00,
2013-06-17 06:02:00,76.0,-99.9,30.03,ESE,115,3.0,4.0,-999,-99.99,,,-99.99,,2013-06-17 10:02:00,
2013-06-17 06:12:00,77.0,-99.9,30.04,ESE,119,2.0,2.0,-999,-99.99,,,-99.99,,2013-06-17 10:12:00,
2013-06-17 06:22:00,77.0,-99.9,30.03,East,89,1.0,2.0,-999,-99.99,,,-99.99,,2013-06-17 10:22:00,
2013-06-17 06:33:00,77.0,-99.9,30.03,East,90,2.0,3.0,-999,-99.99,,,-99.99,,2013-06-17 10:33:00,
2013-06-17 06:43:00,78.0,-99.9,30.04,East,95,2.0,3.0,-999,-99.99,,,-99.99,,2013-06-17 10:43:00,
2013-06-17 06:54:00,78.0,-99.9,30.04,ESE,111,2.0,2.0,-999,-99.99,,,-99.99,,2013-06-17 10:54:00,
2013-06-17 07:02:00,78.0,-99.9,30.04,ESE,103,3.0,4.0,-999,-99.99,,,-99.99,,2013-06-17 11:02:00,
2013-06-17 07:12:00,77.0,-99.9,30.04,SE,127,3.0,3.0,-999,-99.99,,,-99.99,,2013-06-17 11:12:00,
2013-06-17 07:23:00,77.0,-99.9,30.04,SE,126,2.0,3.0,-999,-99.99,,,-99.99,,2013-06-17 11:23:00,
2013-06-17 07:33:00,77.0,-99.9,30.04,ESE,121,4.0,4.0,-999,-99.99,,,-99.99,,2013-06-17 11:33:00,
2013-06-17 07:43:00,78.0,-99.9,30.04,ESE,119,4.0,4.0,-999,-99.99,,,-99.99,,2013-06-17 11:43:00,
2013-06-17 07:53:00,79.0,-99.9,30.04,ESE,121,2.0,3.0,-999,-99.99,,,-99.99,,2013-06-17 11:53:00,
2013-06-17 08:02:00,80.0,-99.9,30.04,ESE,123,2.0,2.0,-999,-99.99,,,-99.99,,2013-06-17 12:02:00,
2013-06-17 08:12:00,80.0,-99.9,30.04,ESE,118,2.0,4.0,-999,-99.99,,,-99.99,,2013-06-17 12:12:00,
2013-06-17 08:23:00,82.0,-99.9,30.04,ESE,121,2.0,3.0,-999,-99.99,,,-99.99,,2013-06-17 12:23:00,
2013-06-17 08:33:00,81.0,-99.9,30.05,East,83,3.0,5.0,-999,-99.99,,,-99.99,,2013-06-17 12:33:00,
2013-06-17 08:43:00,81.0,-99.9,30.06,ENE,71,3.0,4.0,-999,-99.99,,,-99.99,,2013-06-17 12:43:00,
2013-06-17 08:53:00,81.0,-99.9,30.06,ENE,66,3.0,5.0,-999,-99.99,,,-99.99,,2013-06-17 12:53:00,
2013-06-17 09:02:00,82.0,-99.9,30.06,ESE,102,3.0,4.0,-999,-99.99,,,-99.99,,2013-06-17 13:02:00,
2013-06-17 09:12:00,83.0,-99.9,30.06,East,90,1.0,4.0,-999,-99.99,,,-99.99,,2013-06-17 13:12:00,
2013-06-17 09:22:00,83.0,-99.9,30.06,ESE,115,4.0,5.0,-999,-99.99,,,-99.99,,2013-06-17 13:22:00,
2013-06-17 09:33:00,83.0,-99.9,30.06,East,93,4.0,6.0,-999,-99.99,,,-99.99,,2013-06-17 13:33:00,
2013-06-17 09:43:00,83.0,-99.9,30.06,SE,139,5.0,7.0,-999,-99.99,,,-99.99,,2013-06-17 13:43:00,
2013-06-17 09:53:00,84.0,-99.9,30.05,SSE,156,5.0,8.0,-999,-99.99,,,-99.99,,2013-06-17 13:53:00,
2013-06-17 10:02:00,84.0,-99.9,30.05,SE,142,2.0,9.0,-999,-99.99,,,-99.99,,2013-06-17 14:02:00,
2013-06-17 10:12:00,84.0,-99.9,30.05,SE,145,5.0,8.0,-999,-99.99,,,-99.99,,2013-06-17 14:12:00,
2013-06-17 10:22:00,84.0,-99.9,30.05,ESE,121,5.0,10.0,-999,-99.99,,,-99.99,,2013-06-17 14:22:00,
2013-06-17 10:34:00,84.0,-99.9,30.05,SE,138,7.0,9.0,-999,-99.99,,,-99.99,,2013-06-17 14:34:00,
2013-06-17 10:44:00,86.0,-99.9,30.05,East,97,3.0,5.0,-999,-99.99,,,-99.99,,2013-06-17 14:44:00,
2013-06-17 10:54:00,84.0,-99.9,30.05,ENE,67,3.0,6.0,-999,-99.99,,,-99.99,,2013-06-17 14:54:00,
2013-06-17 11:02:00,85.0,-99.9,30.05,NE,47,2.0,5.0,-999,-99.99,,,-99.99,,2013-06-17 15:02:00,
2013-06-17 11:12:00,85.0,-99.9,30.05,NE,47,2.0,5.0,-999,-99.99,,,-99.99,,2013-06-17 15:12:00,
2013-06-17 11:22:00,85.0,-99.9,30.05,NE,47,2.0,5.0,-999,-99.99,,,-99.99,,2013-06-17 15:22:00,
2013-06-17 11:43:00,86.0,-99.9,30.06,NNE,13,4.0,5.0,-999,-99.99,,,-99.99,,2013-06-17 15:43:00,
2013-06-17 11:53:00,85.0,-99.9,30.06,North,3,5.0,7.0,-999,-99.99,,,-99.99,,2013-06-17 15:53:00,
2013-06-17 12:02:00,85.0,-99.9,30.06,North,3,5.0,7.0,-999,-99.99,,,-99.99,,2013-06-17 16:02:00,
2013-06-17 12:12:00,85.0,-99.9,30.06,North,6,5.0,7.0,-999,-99.99,,,-99.99,,2013-06-17 16:12:00,
2013-06-17 12:22:00,85.0,-99.9,30.07,NNE,20,6.0,7.0,-999,-99.99,,,-99.99,,2013-06-17 16:22:00,
2013-06-17 12:33:00,85.0,-99.9,30.07,NNE,19,4.0,7.0,-999,-99.99,,,-99.99,,2013-06-17 16:33:00,
2013-06-17 12:43:00,86.0,-99.9,30.06,NNE,15,4.0,5.0,-999,-99.99,,,-99.99,,2013-06-17 16:43:00,
2013-06-17 12:54:00,86.0,-99.9,30.06,NNE,28,4.0,6.0,-999,-99.99,,,-99.99,,2013-06-17 16:54:00,
2013-06-17 13:02:00,86.0,-99.9,30.06,NNE,27,2.0,4.0,-999,-99.99,,,-99.99,,2013-06-17 17:02:00,
2013-06-17 13:12:00,86.0,-99.9,30.06,NNE,27,2.0,4.0,-999,-99.99,,,-99.99,,2013-06-17 17:12:00,
2013-06-17 13:22:00,87.0,-99.9,30.05,North,349,2.0,4.0,-999,-99.99,,,-99.99,,2013-06-17 17:22:00,
2013-06-17 13:33:00,89.0,-99.9,30.05,NW,313,3.0,4.0,-999,-99.99,,,-99.99,,2013-06-17 17:33:00,
2013-06-17 13:43:00,90.0,-99.9,30.05,SSE,149,5.0,8.0,-999,-99.99,,,-99.99,,2013-06-17 17:43:00,
2013-06-17 13:52:00,88.0,-99.9,30.04,WSW,247,4.0,8.0,-999,-99.99,,,-99.99,,2013-06-17 17:52:00,
2013-06-17 14:02:00,88.0,-99.9,30.04,WSW,247,4.0,8.0,-999,-99.99,,,-99.99,,2013-06-17 18:02:00,
2013-06-17 14:12:00,90.0,-99.9,30.04,WNW,284,4.0,6.0,-999,-99.99,,,-99.99,,2013-06-17 18:12:00,
2013-06-17 14:23:00,91.0,-99.9,30.04,NNW,338,5.0,5.0,-999,-99.99,,,-99.99,,2013-06-17 18:23:00,
2013-06-17 14:33:00,92.0,-99.9,30.04,WNW,302,6.0,8.0,-999,-99.99,,,-99.99,,2013-06-17 18:33:00,
2013-06-17 14:43:00,89.0,-99.9,30.03,West,259,5.0,7.0,-999,-99.99,,,-99.99,,2013-06-17 18:43:00,
2013-06-17 14:53:00,89.0,-99.9,30.03,West,259,5.0,7.0,-999,-99.99,,,-99.99,,2013-06-17 18:53:00,
2013-06-17 15:02:00,91.0,-99.9,30.03,NNW,347,4.0,6.0,-999,-99.99,,,-99.99,,2013-06-17 19:02:00,
2013-06-17 15:12:00,91.0,-99.9,30.03,WNW,282,4.0,6.0,-999,-99.99,,,-99.99,,2013-06-17 19:12:00,
2013-06-17 15:22:00,91.0,-99.9,30.02,West,278,5.0,6.0,-999,-99.99,,,-99.99,,2013-06-17 19:22:00,
2013-06-17 15:33:00,93.0,-99.9,30.02,NW,322,4.0,6.0,-999,-99.99,,,-99.99,,2013-06-17 19:33:00,
2013-06-17 15:44:00,93.0,-99.9,30.02,NNW,327,4.0,4.0,-999,-99.99,,,-99.99,,2013-06-17 19:44:00,
2013-06-17 15:54:00,93.0,-99.9,30.01,NNW,327,5.0,7.0,-999,-99.99,,,-99.99,,2013-06-17 19:54:00,
2013-06-17 16:02:00,93.0,-99.9,30.01,NNW,327,5.0,7.0,-999,-99.99,,,-99.99,,2013-06-17 20:02:00,
2013-06-17 16:11:00,92.0,-99.9,30.01,West,280,6.0,8.0,-999,-99.99,,,-99.99,,2013-06-17 20:11:00,
2013-06-17 16:22:00,94.0,-99.9,30.01,WNW,287,6.0,8.0,-999,-99.99,,,-99.99,,2013-06-17 20:22:00,
2013-06-17 16:34:00,94.0,-99.9,30.01,WNW,283,4.0,8.0,-999,-99.99,,,-99.99,,2013-06-17 20:34:00,
2013-06-17 16:43:00,93.0,-99.9,30.00,WNW,283,5.0,7.0,-999,-99.99,,,-99.99,,2013-06-17 20:43:00,
2013-06-17 16:53:00,93.0,-99.9,30.00,West,281,3.0,6.0,-999,-99.99,,,-99.99,,2013-06-17 20:53:00,
2013-06-17 17:02:00,93.0,-99.9,30.00,West,281,3.0,6.0,-999,-99.99,,,-99.99,,2013-06-17 21:02:00,
2013-06-17 17:12:00,91.0,-99.9,29.99,West,259,8.0,10.0,-999,-99.99,,,-99.99,,2013-06-17 21:12:00,
2013-06-17 17:22:00,90.0,-99.9,29.98,WSW,250,6.0,12.0,-999,-99.99,,,-99.99,,2013-06-17 21:22:00,
2013-06-17 17:33:00,90.0,-99.9,29.98,WSW,256,7.0,11.0,-999,-99.99,,,-99.99,,2013-06-17 21:33:00,
2013-06-17 17:43:00,90.0,-99.9,29.99,West,261,8.0,12.0,-999,-99.99,,,-99.99,,2013-06-17 21:43:00,
2013-06-17 17:52:00,90.0,-99.9,29.99,West,261,8.0,12.0,-999,-99.99,,,-99.99,,2013-06-17 21:52:00,
2013-06-17 18:01:00,90.0,-99.9,29.99,WSW,253,7.0,8.0,-999,-99.99,,,-99.99,,2013-06-17 22:01:00,
2013-06-17 18:12:00,90.0,-99.9,29.99,WSW,253,7.0,8.0,-999,-99.99,,,-99.99,,2013-06-17 22:12:00,
2013-06-17 18:22:00,90.0,-99.9,29.99,West,263,9.0,11.0,-999,-99.99,,,-99.99,,2013-06-17 22:22:00,
2013-06-17 18:34:00,89.0,-99.9,29.99,WSW,254,8.0,12.0,-999,-99.99,,,-99.99,,2013-06-17 22:34:00,
2013-06-17 18:43:00,90.0,-99.9,29.99,SW,222,7.0,13.0,-999,-99.99,,,-99.99,,2013-06-17 22:43:00,
2013-06-17 18:54:00,89.0,-99.9,29.99,SW,218,6.0,11.0,-999,-99.99,,,-99.99,,2013-06-17 22:54:00,
2013-06-17 19:02:00,89.0,-99.9,29.99,SSW,202,5.0,9.0,-999,-99.99,,,-99.99,,2013-06-17 23:02:00,
2013-06-17 19:12:00,89.0,-99.9,29.99,South,184,6.0,13.0,-999,-99.99,,,-99.99,,2013-06-17 23:12:00,
2013-06-17 19:22:00,89.0,-99.9,29.99,South,191,6.0,11.0,-999,-99.99,,,-99.99,,2013-06-17 23:22:00,
2013-06-17 19:33:00,89.0,-99.9,29.99,South,191,6.0,11.0,-999,-99.99,,,-99.99,,2013-06-17 23:33:00,
2013-06-17 19:43:00,89.0,-99.9,29.99,SSW,198,5.0,11.0,-999,-99.99,,,-99.99,,2013-06-17 23:43:00,
2013-06-17 19:53:00,89.0,-99.9,29.99,SSW,201,5.0,9.0,-999,-99.99,,,-99.99,,2013-06-17 23:53:00,
2013-06-17 20:02:00,88.0,-99.9,30.00,SSW,209,4.0,13.0,-999,-99.99,,,-99.99,,2013-06-18 00:02:00,
2013-06-17 20:12:00,87.0,-99.9,30.00,SW,215,4.0,11.0,-999,-99.99,,,-99.99,,2013-06-18 00:12:00,
2013-06-17 20:22:00,87.0,-99.9,30.00,SW,215,4.0,11.0,-999,-99.99,,,-99.99,,2013-06-18 00:22:00,
2013-06-17 20:33:00,87.0,-99.9,30.00,SW,215,4.0,11.0,-999,-99.99,,,-99.99,,2013-06-18 00:33:00,
2013-06-17 20:53:00,86.0,-99.9,30.01,SW,214,2.0,8.0,-999,-99.99,,,-99.99,,2013-06-18 00:53:00,
2013-06-17 21:01:00,86.0,-99.9,30.01,SW,214,2.0,8.0,-999,-99.99,,,-99.99,,2013-06-18 01:01:00,
2013-06-17 21:12:00,85.0,-99.9,30.01,SSW,204,2.0,5.0,-999,-99.99,,,-99.99,,2013-06-18 01:12:00,
2013-06-17 21:23:00,85.0,-99.9,30.01,SSW,192,3.0,6.0,-999,-99.99,,,-99.99,,2013-06-18 01:23:00,
2013-06-17 21:34:00,85.0,-99.9,30.02,SW,223,2.0,5.0,-999,-99.99,,,-99.99,,2013-06-18 01:34:00,
2013-06-17 21:44:00,85.0,-99.9,30.03,South,191,5.0,7.0,-999,-99.99,,,-99.99,,2013-06-18 01:44:00,
2013-06-17 21:54:00,85.0,-99.9,30.03,SSW,203,4.0,10.0,-999,-99.99,,,-99.99,,2013-06-18 01:54:00,
2013-06-17 22:02:00,85.0,-99.9,30.03,South,185,4.0,8.0,-999,-99.99,,,-99.99,,2013-06-18 02:02:00,
2013-06-17 22:12:00,85.0,-99.9,30.03,South,185,4.0,8.0,-999,-99.99,,,-99.99,,2013-06-18 02:12:00,
2013-06-17 22:23:00,84.0,-99.9,30.04,SSW,196,5.0,7.0,-999,-99.99,,,-99.99,,2013-06-18 02:23:00,
2013-06-17 22:34:00,84.0,-99.9,30.04,SSW,194,4.0,8.0,-999,-99.99,,,-99.99,,2013-06-18 02:34:00,
2013-06-17 22:43:00,84.0,-99.9,30.04,SSW,195,4.0,6.0,-999,-99.99,,,-99.99,,2013-06-18 02:43:00,
2013-06-17 22:53:00,84.0,-99.9,30.06,SSW,205,3.0,5.0,-999,-99.99,,,-99.99,,2013-06-18 02:53:00,
2013-06-17 23:02:00,84.0,-99.9,30.06,West,262,7.0,9.0,-999,-99.99,,,-99.99,,2013-06-18 03:02:00,
2013-06-17 23:12:00,84.0,-99.9,30.06,West,262,7.0,9.0,-999,-99.99,,,-99.99,,2013-06-18 03:12:00,
2013-06-17 23:23:00,84.0,-99.9,30.06,West,273,6.0,8.0,-999,-99.99,,,-99.99,,2013-06-18 03:23:00,
2013-06-17 23:34:00,84.0,-99.9,30.06,West,273,5.0,7.0,-999,-99.99,,,-99.99,,2013-06-18 03:34:00,
2013-06-17 23:43:00,84.0,-99.9,30.06,West,271,6.0,7.0,-999,-99.99,,,-99.99,,2013-06-18 03:43:00,
2013-06-17 23:53:00,84.0,-99.9,30.06,WSW,247,3.0,5.0,-999,-99.99,,,-99.99,,2013-06-18 03:53:00,